Darstellungsparameter: Aktuell verwendete Einstellungen:
Skalierung der Graphiken ... ?
xyx+y,   Skalierungsfaktor:      Skalierung: Modus: x, Faktor: 1
Darstellungszeitraum ... ?
Vom - - bis: - -   Zeitraum: 12.11.2009 - 18.11.2009
Min/Max/Avg-Anzeige ... ?
Zeige MMA aktuell
Zeige MMA Monat
Zeige MMA alles
Zeige --A aktuell
Zeige --A Monat
Zeige --A alles
Keine MMA-Anzeige
MMA:
Average (ber die Originaldaten)
MMA-Basis: 12.11.2009 - 18.11.2009
Quicknavigation für Darstellung... ?
Tage:      1T, 2T, 3T, 5T -1T -2T -3T -5T +1T +2T +3T +5T
Wochen: 1W, 2W, 3W -1W -2W -3W +1W +2W +3W
Monate: 1M, 3M, 6M -1M -3M -6M +1M +3M +6M
Jahre:    1J, 3J, 5J, 10J -1J -3J -5J -10J +1J +3J +5J +10J
Nutze für die Darstellung ... ?
Originaldaten oder Mittelwerte auf ...
Stundenbasis Tagesbasis Wochenbasis
Monatsbasis Jahresbasis      Datenbasis: Original-Daten
Darstellen als:
Statistik (Auto) Statistik J:M      Darstellung:
Zur Graphik,    zurück zur Übersicht aller Sensoren.
 
Tabellarische Datenbersicht: ?
 
Sensor: Nr:Datum:Temp:Abs-Feuchte:Windchill:Wind:
Aussen-T/F 1 12-11-2009 00:06:03 3.3 C 5.28 g/m*3 3.3 C 0 km/h
2 12-11-2009 00:18:03 3.1 C 5.21 g/m*3 3.1 C 0 km/h
3 12-11-2009 00:30:03 2.8 C 5.16 g/m*3 2.8 C 0 km/h
4 12-11-2009 00:42:03 2.6 C 5.15 g/m*3 2.6 C 0 km/h
5 12-11-2009 00:54:03 2.4 C 5.08 g/m*3 2.4 C 0 km/h
6 12-11-2009 01:06:03 2.1 C 4.98 g/m*3 2.1 C 0 km/h
7 12-11-2009 01:18:03 2 C 4.95 g/m*3 2 C 0 km/h
8 12-11-2009 01:30:03 1.8 C 4.93 g/m*3 1.8 C 0 km/h
9 12-11-2009 01:42:03 1.7 C 4.9 g/m*3 1.7 C 0 km/h
10 12-11-2009 01:54:03 1.7 C 4.9 g/m*3 1.7 C 0 km/h
11 12-11-2009 02:06:04 1.4 C 4.85 g/m*3 1.4 C 0 km/h
12 12-11-2009 02:18:04 1.3 C 4.82 g/m*3 1.3 C 0 km/h
13 12-11-2009 02:30:04 1.2 C 4.79 g/m*3 1.2 C 0 km/h
14 12-11-2009 02:42:04 1.2 C 4.79 g/m*3 1.2 C 0 km/h
15 12-11-2009 02:54:04 1.1 C 4.76 g/m*3 1.1 C 0 km/h
16 12-11-2009 03:06:04 1 C 4.72 g/m*3 1 C 0 km/h
17 12-11-2009 03:18:04 0.9 C 4.74 g/m*3 0.9 C 0 km/h
18 12-11-2009 03:30:04 0.8 C 4.71 g/m*3 0.8 C 0 km/h
19 12-11-2009 03:42:04 0.8 C 4.71 g/m*3 0.8 C 0 km/h
20 12-11-2009 03:54:04 1 C 4.78 g/m*3 1 C 0 km/h
21 12-11-2009 04:06:04 0.8 C 4.76 g/m*3 0.8 C 0 km/h
22 12-11-2009 04:18:04 0.6 C 4.7 g/m*3 0.6 C 0 km/h
23 12-11-2009 04:30:04 0.5 C 4.66 g/m*3 0.5 C 0 km/h
24 12-11-2009 04:42:04 0.4 C 4.63 g/m*3 0.4 C 0 km/h
25 12-11-2009 04:54:04 0.3 C 4.6 g/m*3 0.3 C 0 km/h
Sensor: Nr:Datum:Temp:Abs-Feuchte:Windchill:Wind:
Aussen-T/F 26 12-11-2009 05:06:04 0.2 C 4.57 g/m*3 0.2 C 0 km/h
27 12-11-2009 05:18:04 0.2 C 4.62 g/m*3 0.2 C 0 km/h
28 12-11-2009 05:30:04 0.4 C 4.68 g/m*3 0.4 C 0 km/h
29 12-11-2009 05:42:04 0.6 C 4.75 g/m*3 0.6 C 0 km/h
30 12-11-2009 05:54:05 0.7 C 4.83 g/m*3 0.7 C 0 km/h
31 12-11-2009 06:06:05 0.9 C 4.9 g/m*3 0.9 C 0 km/h
32 12-11-2009 06:18:03 1 C 4.93 g/m*3 1 C 0 km/h
33 12-11-2009 06:30:03 1.1 C 4.96 g/m*3 1.1 C 0 km/h
34 12-11-2009 06:42:03 1.1 C 4.96 g/m*3 1.1 C 0 km/h
35 12-11-2009 06:54:01 1.2 C 5 g/m*3 1.2 C 0 km/h
36 12-11-2009 07:06:02 1.3 C 5.03 g/m*3 1.3 C 0 km/h
37 12-11-2009 07:18:01 1.4 C 5.07 g/m*3 1.4 C 0 km/h
38 12-11-2009 07:30:01 1.4 C 5.07 g/m*3 1.4 C 0 km/h
39 12-11-2009 07:42:01 1.4 C 5.07 g/m*3 1.4 C 0 km/h
40 12-11-2009 07:54:01 1.7 C 5.17 g/m*3 1.7 C 0 km/h
41 12-11-2009 08:06:02 1.7 C 5.17 g/m*3 1.7 C 0 km/h
42 12-11-2009 08:18:01 1.9 C 5.24 g/m*3 1.9 C 0 km/h
43 12-11-2009 08:30:01 2.2 C 5.35 g/m*3 2.2 C 0 km/h
44 12-11-2009 08:42:02 2.3 C 5.39 g/m*3 2.3 C 0 km/h
45 12-11-2009 08:54:01 2.7 C 5.54 g/m*3 2.7 C 0 km/h
46 12-11-2009 09:06:02 3.1 C 5.69 g/m*3 3.1 C 0 km/h
47 12-11-2009 09:18:01 3.3 C 5.76 g/m*3 3.3 C 0 km/h
48 12-11-2009 09:30:01 3.5 C 5.84 g/m*3 3.5 C 0 km/h
49 12-11-2009 09:42:02 3.7 C 5.92 g/m*3 3.7 C 0 km/h
50 12-11-2009 09:54:01 3.7 C 5.92 g/m*3 3.7 C 0 km/h
Sensor: Nr:Datum:Temp:Abs-Feuchte:Windchill:Wind:
Aussen-T/F 51 12-11-2009 10:06:01 3.5 C 5.84 g/m*3 3.5 C 0 km/h
52 12-11-2009 10:18:02 3.5 C 5.84 g/m*3 3.5 C 0 km/h
53 12-11-2009 10:30:02 3.5 C 5.84 g/m*3 3.5 C 0 km/h
54 12-11-2009 10:42:01 3.7 C 5.92 g/m*3 3.7 C 0 km/h
55 12-11-2009 10:54:02 4 C 6.04 g/m*3 4 C 0 km/h
56 12-11-2009 11:06:02 4.2 C 6.12 g/m*3 4.2 C 0 km/h
57 12-11-2009 11:18:02 4.4 C 6.2 g/m*3 4.4 C 0 km/h
58 12-11-2009 11:30:02 4.6 C 6.29 g/m*3 4.6 C 0 km/h
59 12-11-2009 11:42:02 4.8 C 6.37 g/m*3 4.8 C 0 km/h
60 12-11-2009 11:54:02 5.1 C 6.5 g/m*3 5.1 C 0 km/h
61 12-11-2009 12:06:02 5.3 C 6.58 g/m*3 5.3 C 0 km/h
62 12-11-2009 12:18:01 5.5 C 6.6 g/m*3 5.5 C 0 km/h
63 12-11-2009 12:30:01 5.6 C 6.65 g/m*3 5.6 C 0 km/h
64 12-11-2009 12:42:02 5.7 C 6.62 g/m*3 5.7 C 0 km/h
65 12-11-2009 12:54:02 5.6 C 6.5 g/m*3 5.6 C 0 km/h
66 12-11-2009 13:06:02 5.7 C 6.55 g/m*3 5.7 C 0 km/h
67 12-11-2009 13:18:02 5.8 C 6.59 g/m*3 5.8 C 0 km/h
68 12-11-2009 13:30:02 5.9 C 6.56 g/m*3 5.9 C 0 km/h
69 12-11-2009 13:42:02 6.3 C 6.66 g/m*3 6.3 C 0 km/h
70 12-11-2009 13:54:02 6.6 C 6.72 g/m*3 6.6 C 0 km/h
71 12-11-2009 14:06:02 6.6 C 6.64 g/m*3 6.6 C 0 km/h
72 12-11-2009 14:18:02 6.8 C 6.73 g/m*3 6.8 C 0 km/h
73 12-11-2009 14:30:02 7 C 6.74 g/m*3 7 C 0 km/h
74 12-11-2009 14:42:02 7.3 C 6.79 g/m*3 7.3 C 0 km/h
75 12-11-2009 14:54:02 7.5 C 6.8 g/m*3 7.5 C 0 km/h
Sensor: Nr:Datum:Temp:Abs-Feuchte:Windchill:Wind:
Aussen-T/F 76 12-11-2009 15:06:02 7.4 C 6.76 g/m*3 7.4 C 0 km/h
77 12-11-2009 15:18:02 7.3 C 6.72 g/m*3 7.3 C 0 km/h
78 12-11-2009 15:30:02 7.3 C 6.79 g/m*3 7.3 C 0 km/h
79 12-11-2009 15:42:02 7.4 C 6.84 g/m*3 7.4 C 0 km/h
80 12-11-2009 15:54:02 7.4 C 6.92 g/m*3 7.4 C 0 km/h
81 12-11-2009 16:06:02 7.5 C 6.96 g/m*3 7.5 C 0 km/h
82 12-11-2009 16:18:03 7.5 C 6.96 g/m*3 7.5 C 0 km/h
83 12-11-2009 16:30:03 7.5 C 6.96 g/m*3 7.5 C 0 km/h
84 12-11-2009 16:42:02 7.5 C 6.96 g/m*3 7.5 C 0 km/h
85 12-11-2009 16:54:02 7.6 C 7.01 g/m*3 7.6 C 0 km/h
86 12-11-2009 17:06:02 7.7 C 7.05 g/m*3 7.7 C 0 km/h
87 12-11-2009 17:18:02 7.7 C 7.14 g/m*3 7.7 C 0 km/h
88 12-11-2009 17:30:02 7.7 C 7.14 g/m*3 7.7 C 0 km/h
89 12-11-2009 17:42:02 7.8 C 7.18 g/m*3 7.8 C 0 km/h
90 12-11-2009 17:54:02 7.9 C 7.23 g/m*3 7.9 C 0 km/h
91 12-11-2009 18:06:02 8 C 7.19 g/m*3 8 C 0 km/h
92 12-11-2009 18:18:02 8.2 C 7.29 g/m*3 8.2 C 0 km/h
93 12-11-2009 18:30:02 8.1 C 7.16 g/m*3 8.1 C 0 km/h
94 12-11-2009 18:42:02 8 C 7.11 g/m*3 8 C 0 km/h
95 12-11-2009 18:54:02 7.9 C 7.23 g/m*3 7.9 C 0 km/h
96 12-11-2009 19:06:02 7.9 C 7.23 g/m*3 7.9 C 0 km/h
97 12-11-2009 19:18:02 7.9 C 7.31 g/m*3 7.9 C 0 km/h
98 12-11-2009 19:30:03 7.9 C 7.31 g/m*3 7.9 C 0 km/h
99 12-11-2009 19:42:02 7.8 C 7.26 g/m*3 7.8 C 0 km/h
100 12-11-2009 19:54:02 7.8 C 7.26 g/m*3 7.8 C 0 km/h
Sensor: Nr:Datum:Temp:Abs-Feuchte:Windchill:Wind:
Aussen-T/F 101 12-11-2009 20:06:01 7.8 C 7.35 g/m*3 7.8 C 0 km/h
102 12-11-2009 20:18:02 7.8 C 7.35 g/m*3 7.8 C 0 km/h
103 12-11-2009 20:30:02 7.8 C 7.35 g/m*3 7.8 C 0 km/h
104 12-11-2009 20:42:02 7.6 C 7.33 g/m*3 7.6 C 0 km/h
105 12-11-2009 20:54:01 7.6 C 7.33 g/m*3 7.6 C 0 km/h
106 12-11-2009 21:06:02 7.5 C 7.28 g/m*3 7.5 C 0 km/h
107 12-11-2009 21:18:01 7.3 C 7.27 g/m*3 7.3 C 0 km/h
108 12-11-2009 21:30:01 7.1 C 7.18 g/m*3 7.1 C 0 km/h
109 12-11-2009 21:42:01 7 C 7.13 g/m*3 7 C 0 km/h
110 12-11-2009 21:54:01 7.1 C 7.25 g/m*3 7.1 C 0 km/h
111 12-11-2009 22:07:01 7.4 C 7.4 g/m*3 7.4 C 0 km/h
112 12-11-2009 22:19:01 7.5 C 7.52 g/m*3 7.5 C 0 km/h
113 12-11-2009 22:31:01 7.2 C 7.3 g/m*3 7.2 C 0 km/h
114 12-11-2009 22:43:01 7.3 C 7.35 g/m*3 7.3 C 0 km/h
115 12-11-2009 22:55:01 7.6 C 7.49 g/m*3 7.6 C 0 km/h
116 12-11-2009 23:07:01 8.1 C 7.66 g/m*3 8.1 C 0 km/h
117 12-11-2009 23:19:01 7.9 C 7.47 g/m*3 7.9 C 0 km/h
118 12-11-2009 23:31:02 8 C 7.36 g/m*3 8 C 0 km/h
119 12-11-2009 23:43:02 8.3 C 7.5 g/m*3 8.3 C 0 km/h
120 12-11-2009 23:55:02 8.6 C 7.48 g/m*3 8.6 C 0 km/h
121 13-11-2009 00:07:02 8.5 C 7.26 g/m*3 8.5 C 0 km/h
122 13-11-2009 00:19:02 8.3 C 7.16 g/m*3 8.3 C 0 km/h
123 13-11-2009 00:31:02 8.1 C 7.16 g/m*3 8.1 C 0 km/h
124 13-11-2009 00:43:02 7.5 C 6.96 g/m*3 7.5 C 0 km/h
125 13-11-2009 00:55:02 7.5 C 7.12 g/m*3 7.5 C 0 km/h
Sensor: Nr:Datum:Temp:Abs-Feuchte:Windchill:Wind:
Aussen-T/F 126 13-11-2009 01:07:02 7.3 C 7.03 g/m*3 7.3 C 0 km/h
127 13-11-2009 01:19:02 7.1 C 7.02 g/m*3 7.1 C 0 km/h
128 13-11-2009 01:31:02 7.3 C 7.19 g/m*3 7.3 C 0 km/h
129 13-11-2009 01:43:02 7.5 C 7.36 g/m*3 7.5 C 0 km/h
130 13-11-2009 01:55:02 7.5 C 7.36 g/m*3 7.5 C 0 km/h
131 13-11-2009 02:07:02 7.5 C 7.36 g/m*3 7.5 C 0 km/h
132 13-11-2009 02:19:02 7.7 C 7.54 g/m*3 7.7 C 0 km/h
133 13-11-2009 02:31:02 7.6 C 7.41 g/m*3 7.6 C 0 km/h
134 13-11-2009 02:43:02 7.5 C 7.36 g/m*3 7.5 C 0 km/h
135 13-11-2009 02:55:02 7.9 C 7.64 g/m*3 7.9 C 0 km/h
136 13-11-2009 03:07:02 8.1 C 7.66 g/m*3 8.1 C 0 km/h
137 13-11-2009 03:19:03 8.2 C 7.79 g/m*3 8.2 C 0 km/h
138 13-11-2009 03:31:03 8.5 C 7.94 g/m*3 8.5 C 0 km/h
139 13-11-2009 03:43:03 8.7 C 8.04 g/m*3 8.7 C 0 km/h
140 13-11-2009 03:55:03 8.7 C 8.04 g/m*3 8.7 C 0 km/h
141 13-11-2009 04:07:03 8.6 C 7.99 g/m*3 8.6 C 0 km/h
142 13-11-2009 04:19:03 8.6 C 7.99 g/m*3 8.6 C 0 km/h
143 13-11-2009 04:31:03 8.5 C 7.94 g/m*3 8.5 C 0 km/h
144 13-11-2009 04:43:03 8.7 C 8.13 g/m*3 8.7 C 0 km/h
145 13-11-2009 04:55:03 8.7 C 8.13 g/m*3 8.7 C 0 km/h
146 13-11-2009 05:07:03 8.6 C 8.08 g/m*3 8.6 C 0 km/h
147 13-11-2009 05:19:03 8.7 C 8.13 g/m*3 8.7 C 0 km/h
148 13-11-2009 05:31:03 9 C 8.29 g/m*3 9 C 0 km/h
149 13-11-2009 05:43:03 9.7 C 8.76 g/m*3 9.7 C 0 km/h
150 13-11-2009 05:55:03 9.9 C 8.87 g/m*3 9.9 C 0 km/h
Sensor: Nr:Datum:Temp:Abs-Feuchte:Windchill:Wind:
Aussen-T/F 151 13-11-2009 06:07:03 10.2 C 8.95 g/m*3 10.2 C 0 km/h
152 13-11-2009 06:19:03 10.4 C 9.06 g/m*3 10.4 C 0 km/h
153 13-11-2009 06:31:03 10 C 8.74 g/m*3 10 C 0 km/h
154 13-11-2009 06:43:03 10 C 8.74 g/m*3 10 C 0 km/h
155 13-11-2009 06:55:03 10 C 8.74 g/m*3 10 C 0 km/h
156 13-11-2009 07:07:01 9.8 C 8.72 g/m*3 9.8 C 0 km/h
157 13-11-2009 07:19:02 9.7 C 8.67 g/m*3 9.7 C 0 km/h
158 13-11-2009 07:31:02 10.1 C 8.89 g/m*3 10.1 C 0 km/h
159 13-11-2009 07:43:02 10.3 C 9 g/m*3 10.3 C 0 km/h
160 13-11-2009 07:55:02 10.6 C 9.17 g/m*3 10.6 C 0 km/h
161 13-11-2009 08:07:03 10.6 C 9.08 g/m*3 10.6 C 0 km/h
162 13-11-2009 08:19:02 10.7 C 9.13 g/m*3 10.7 C 0 km/h
163 13-11-2009 08:31:03 11 C 9.11 g/m*3 11 C 0 km/h
164 13-11-2009 08:43:03 11.2 C 9.02 g/m*3 11.2 C 0 km/h
165 13-11-2009 08:55:02 11.4 C 8.93 g/m*3 11.4 C 0 km/h
166 13-11-2009 09:07:03 11.5 C 8.78 g/m*3 11.5 C 0 km/h
167 13-11-2009 09:19:02 11.7 C 8.79 g/m*3 11.7 C 0 km/h
168 13-11-2009 09:31:03 11.8 C 8.74 g/m*3 11.8 C 0 km/h
169 13-11-2009 09:43:04 12 C 8.74 g/m*3 12 C 0 km/h
170 13-11-2009 09:55:02 11.9 C 8.79 g/m*3 11.9 C 0 km/h
171 13-11-2009 10:07:02 12.2 C 8.85 g/m*3 12.2 C 0 km/h
172 13-11-2009 10:19:02 12.9 C 8.9 g/m*3 12.9 C 0 km/h
173 13-11-2009 10:31:02 13.3 C 8.55 g/m*3 13.3 C 0 km/h
174 13-11-2009 10:43:02 13.5 C 8.54 g/m*3 13.5 C 0 km/h
175 13-11-2009 10:55:02 13.6 C 8.59 g/m*3 13.6 C 0 km/h
Sensor: Nr:Datum:Temp:Abs-Feuchte:Windchill:Wind:
Aussen-T/F 176 13-11-2009 11:07:02 13.6 C 8.47 g/m*3 13.6 C 0 km/h
177 13-11-2009 11:19:02 13.7 C 8.53 g/m*3 13.7 C 0 km/h
178 13-11-2009 11:31:02 13.8 C 8.46 g/m*3 13.8 C 0 km/h
179 13-11-2009 11:43:02 13.8 C 8.58 g/m*3 13.8 C 0 km/h
180 13-11-2009 11:55:02 13.8 C 8.58 g/m*3 13.8 C 0 km/h
181 13-11-2009 12:07:02 13.9 C 8.51 g/m*3 13.9 C 0 km/h
182 13-11-2009 12:19:02 14.1 C 8.25 g/m*3 14.1 C 0 km/h
183 13-11-2009 12:31:01 14.2 C 8.18 g/m*3 14.2 C 0 km/h
184 13-11-2009 12:43:01 14.2 C 8.06 g/m*3 14.2 C 0 km/h
185 13-11-2009 12:55:02 14.2 C 8.06 g/m*3 14.2 C 0 km/h
186 13-11-2009 13:07:01 14.3 C 7.99 g/m*3 14.3 C 0 km/h
187 13-11-2009 13:19:02 14.6 C 8.01 g/m*3 14.6 C 0 km/h
188 13-11-2009 13:31:02 14.9 C 8.03 g/m*3 14.9 C 0 km/h
189 13-11-2009 13:43:02 15.3 C 7.84 g/m*3 15.3 C 0 km/h
190 13-11-2009 13:55:02 16.3 C 7.91 g/m*3 16.3 C 0 km/h
191 13-11-2009 14:07:02 17.1 C 7.57 g/m*3 17.1 C 0 km/h
192 13-11-2009 14:19:02 17.4 C 7.26 g/m*3 17.4 C 0 km/h
193 13-11-2009 14:31:02 17.4 C 7.11 g/m*3 17.4 C 0 km/h
194 13-11-2009 14:43:02 17.5 C 6.86 g/m*3 17.5 C 0 km/h
195 13-11-2009 14:55:02 17.3 C 6.92 g/m*3 17.3 C 0 km/h
196 13-11-2009 15:07:02 17.3 C 7.22 g/m*3 17.3 C 0 km/h
197 13-11-2009 15:19:01 17.1 C 7.42 g/m*3 17.1 C 0 km/h
198 13-11-2009 15:31:02 16.6 C 7.35 g/m*3 16.6 C 0 km/h
199 13-11-2009 15:43:03 16.1 C 7.54 g/m*3 16.1 C 0 km/h
200 13-11-2009 15:55:02 15.6 C 7.58 g/m*3 15.6 C 0 km/h
Sensor: Nr:Datum:Temp:Abs-Feuchte:Windchill:Wind:
Aussen-T/F 201 13-11-2009 16:07:02 15.1 C 7.61 g/m*3 15.1 C 0 km/h
202 13-11-2009 16:19:02 14.7 C 7.55 g/m*3 14.7 C 0 km/h
203 13-11-2009 16:31:02 14.2 C 7.82 g/m*3 14.2 C 0 km/h
204 13-11-2009 16:43:02 13.6 C 8 g/m*3 13.6 C 0 km/h
205 13-11-2009 16:55:02 12.8 C 8.06 g/m*3 12.8 C 0 km/h
206 13-11-2009 17:07:02 12.5 C 8.14 g/m*3 12.5 C 0 km/h
207 13-11-2009 17:19:02 12.3 C 8.04 g/m*3 12.3 C 0 km/h
208 13-11-2009 17:31:02 12.1 C 8.04 g/m*3 12.1 C 0 km/h
209 13-11-2009 17:43:02 11.9 C 8.15 g/m*3 11.9 C 0 km/h
210 13-11-2009 17:55:02 11.6 C 8 g/m*3 11.6 C 0 km/h
211 13-11-2009 18:07:02 11.5 C 8.06 g/m*3 11.5 C 0 km/h
212 13-11-2009 18:19:03 11.2 C 8.01 g/m*3 11.2 C 0 km/h
213 13-11-2009 18:31:02 11.3 C 8.16 g/m*3 11.3 C 0 km/h
214 13-11-2009 18:43:02 11 C 8.01 g/m*3 11 C 0 km/h
215 13-11-2009 18:55:03 11 C 8.11 g/m*3 11 C 0 km/h
216 13-11-2009 19:07:02 11 C 8.21 g/m*3 11 C 0 km/h
217 13-11-2009 19:19:02 11.1 C 8.36 g/m*3 11.1 C 0 km/h
218 13-11-2009 19:31:02 10.8 C 8.2 g/m*3 10.8 C 0 km/h
219 13-11-2009 19:43:02 10.8 C 8.3 g/m*3 10.8 C 0 km/h
220 13-11-2009 19:55:02 10.5 C 8.15 g/m*3 10.5 C 0 km/h
221 13-11-2009 20:07:02 10.7 C 8.35 g/m*3 10.7 C 0 km/h
222 13-11-2009 20:19:02 10.5 C 8.24 g/m*3 10.5 C 0 km/h
223 13-11-2009 20:31:02 10.4 C 8.29 g/m*3 10.4 C 0 km/h
224 13-11-2009 20:43:02 10.3 C 8.24 g/m*3 10.3 C 0 km/h
225 13-11-2009 20:55:02 10.2 C 8.28 g/m*3 10.2 C 0 km/h
Sensor: Nr:Datum:Temp:Abs-Feuchte:Windchill:Wind:
Aussen-T/F 226 13-11-2009 21:07:02 10.4 C 8.48 g/m*3 10.4 C 0 km/h
227 13-11-2009 21:19:02 10.3 C 8.43 g/m*3 10.3 C 0 km/h
228 13-11-2009 21:31:02 10.3 C 8.43 g/m*3 10.3 C 0 km/h
229 13-11-2009 21:43:02 10.1 C 8.32 g/m*3 10.1 C 0 km/h
230 13-11-2009 21:55:01 10.2 C 8.47 g/m*3 10.2 C 0 km/h
231 13-11-2009 22:08:04 10.2 C 8.47 g/m*3 10.2 C 0 km/h
232 13-11-2009 22:20:04 10.1 C 8.42 g/m*3 10.1 C 0 km/h
233 13-11-2009 22:32:04 9.9 C 8.4 g/m*3 9.9 C 0 km/h
234 13-11-2009 22:44:04 9.7 C 8.3 g/m*3 9.7 C 0 km/h
235 13-11-2009 22:56:04 9.8 C 8.44 g/m*3 9.8 C 0 km/h
236 13-11-2009 23:08:04 9.7 C 8.39 g/m*3 9.7 C 0 km/h
237 13-11-2009 23:20:04 9.7 C 8.39 g/m*3 9.7 C 0 km/h
238 13-11-2009 23:32:04 9.7 C 8.48 g/m*3 9.7 C 0 km/h
239 13-11-2009 23:44:04 9.7 C 8.48 g/m*3 9.7 C 0 km/h
240 13-11-2009 23:56:04 9.7 C 8.48 g/m*3 9.7 C 0 km/h
241 14-11-2009 00:08:04 9.6 C 8.43 g/m*3 9.6 C 0 km/h
242 14-11-2009 00:20:04 9.5 C 8.37 g/m*3 9.5 C 0 km/h
243 14-11-2009 00:32:04 9.5 C 8.37 g/m*3 9.5 C 0 km/h
244 14-11-2009 00:44:05 9.4 C 8.32 g/m*3 9.4 C 0 km/h
245 14-11-2009 00:56:05 9.5 C 8.47 g/m*3 9.5 C 0 km/h
246 14-11-2009 01:08:05 9.5 C 8.47 g/m*3 9.5 C 0 km/h
247 14-11-2009 01:20:05 9.5 C 8.47 g/m*3 9.5 C 0 km/h
248 14-11-2009 01:32:05 9.4 C 8.41 g/m*3 9.4 C 0 km/h
249 14-11-2009 01:44:05 9.4 C 8.41 g/m*3 9.4 C 0 km/h
250 14-11-2009 01:56:05 9.3 C 8.36 g/m*3 9.3 C 0 km/h
Sensor: Nr:Datum:Temp:Abs-Feuchte:Windchill:Wind:
Aussen-T/F 251 14-11-2009 02:08:05 9.1 C 8.25 g/m*3 9.1 C 0 km/h
252 14-11-2009 02:20:05 9.1 C 8.25 g/m*3 9.1 C 0 km/h
253 14-11-2009 02:32:05 9.1 C 8.34 g/m*3 9.1 C 0 km/h
254 14-11-2009 02:44:05 9.5 C 8.56 g/m*3 9.5 C 0 km/h
255 14-11-2009 02:56:05 9.6 C 8.61 g/m*3 9.6 C 0 km/h
256 14-11-2009 03:08:05 9.6 C 8.61 g/m*3 9.6 C 0 km/h
257 14-11-2009 03:20:05 9.8 C 8.72 g/m*3 9.8 C 0 km/h
258 14-11-2009 03:32:05 9.9 C 8.78 g/m*3 9.9 C 0 km/h
259 14-11-2009 03:44:05 10 C 8.74 g/m*3 10 C 0 km/h
260 14-11-2009 03:56:05 10.1 C 8.79 g/m*3 10.1 C 0 km/h
261 14-11-2009 04:08:05 10.2 C 8.85 g/m*3 10.2 C 0 km/h
262 14-11-2009 04:20:05 10.4 C 8.87 g/m*3 10.4 C 0 km/h
263 14-11-2009 04:32:05 10.5 C 8.83 g/m*3 10.5 C 0 km/h
264 14-11-2009 04:44:06 10.6 C 8.88 g/m*3 10.6 C 0 km/h
265 14-11-2009 04:56:06 10.5 C 8.73 g/m*3 10.5 C 0 km/h
266 14-11-2009 05:08:06 10.6 C 8.69 g/m*3 10.6 C 0 km/h
267 14-11-2009 05:20:06 10.7 C 8.64 g/m*3 10.7 C 0 km/h
268 14-11-2009 05:32:06 10.9 C 8.55 g/m*3 10.9 C 0 km/h
269 14-11-2009 05:44:06 10.8 C 8.3 g/m*3 10.8 C 0 km/h
270 14-11-2009 05:56:06 10.7 C 8.25 g/m*3 10.7 C 0 km/h
271 14-11-2009 06:08:06 10.7 C 8.25 g/m*3 10.7 C 0 km/h
272 14-11-2009 06:20:06 11 C 8.21 g/m*3 11 C 0 km/h
273 14-11-2009 06:32:06 11 C 8.11 g/m*3 11 C 0 km/h
274 14-11-2009 06:44:06 10.8 C 8.11 g/m*3 10.8 C 0 km/h
275 14-11-2009 06:56:06 10.7 C 8.05 g/m*3 10.7 C 0 km/h
Sensor: Nr:Datum:Temp:Abs-Feuchte:Windchill:Wind:
Aussen-T/F 276 14-11-2009 07:08:06 10.7 C 8.05 g/m*3 10.7 C 0 km/h
277 14-11-2009 07:20:06 10.7 C 7.96 g/m*3 10.7 C 0 km/h
278 14-11-2009 07:32:06 10.7 C 7.96 g/m*3 10.7 C 0 km/h
279 14-11-2009 07:44:06 10.7 C 8.05 g/m*3 10.7 C 0 km/h
280 14-11-2009 07:56:06 10.7 C 7.96 g/m*3 10.7 C 0 km/h
281 14-11-2009 08:08:06 10.8 C 8.01 g/m*3 10.8 C 0 km/h
282 14-11-2009 08:20:03 10.7 C 7.86 g/m*3 10.7 C 0 km/h
283 14-11-2009 08:32:03 10.8 C 7.91 g/m*3 10.8 C 0 km/h
284 14-11-2009 08:44:03 11 C 7.91 g/m*3 11 C 0 km/h
285 14-11-2009 08:56:01 11.2 C 7.91 g/m*3 11.2 C 0 km/h
286 14-11-2009 09:08:02 11.3 C 7.85 g/m*3 11.3 C 0 km/h
287 14-11-2009 09:20:02 11.6 C 7.9 g/m*3 11.6 C 0 km/h
288 14-11-2009 09:32:01 11.8 C 7.89 g/m*3 11.8 C 0 km/h
289 14-11-2009 09:44:01 12 C 7.78 g/m*3 12 C 0 km/h
290 14-11-2009 09:56:01 12.9 C 7.78 g/m*3 12.9 C 0 km/h
291 14-11-2009 10:08:02 13.2 C 7.46 g/m*3 13.2 C 0 km/h
292 14-11-2009 10:20:02 14 C 7.36 g/m*3 14 C 0 km/h
293 14-11-2009 10:32:01 14.6 C 7.13 g/m*3 14.6 C 0 km/h
294 14-11-2009 10:44:01 14.7 C 7.05 g/m*3 14.7 C 0 km/h
295 14-11-2009 10:56:01 14.7 C 7.05 g/m*3 14.7 C 0 km/h
296 14-11-2009 11:08:01 14.6 C 7.01 g/m*3 14.6 C 0 km/h
297 14-11-2009 11:20:02 14.6 C 7.01 g/m*3 14.6 C 0 km/h
298 14-11-2009 11:32:01 14.6 C 7.26 g/m*3 14.6 C 0 km/h
299 14-11-2009 11:44:01 14.8 C 6.97 g/m*3 14.8 C 0 km/h
300 14-11-2009 11:56:03 14.9 C 7.14 g/m*3 14.9 C 0 km/h
Sensor: Nr:Datum:Temp:Abs-Feuchte:Windchill:Wind:
Aussen-T/F 301 14-11-2009 12:08:02 15.2 C 7.01 g/m*3 15.2 C 0 km/h
302 14-11-2009 12:20:02 15.4 C 6.96 g/m*3 15.4 C 0 km/h
303 14-11-2009 12:32:02 14.9 C 7.39 g/m*3 14.9 C 0 km/h
304 14-11-2009 12:44:02 14 C 7.48 g/m*3 14 C 0 km/h
305 14-11-2009 12:56:02 13.5 C 8.07 g/m*3 13.5 C 0 km/h
306 14-11-2009 13:08:02 13.1 C 8.44 g/m*3 13.1 C 0 km/h
307 14-11-2009 13:20:02 13.1 C 8.67 g/m*3 13.1 C 0 km/h
308 14-11-2009 13:32:02 13.1 C 9.01 g/m*3 13.1 C 0 km/h
309 14-11-2009 13:44:02 12.9 C 9.13 g/m*3 12.9 C 0 km/h
310 14-11-2009 13:56:02 13.1 C 8.9 g/m*3 13.1 C 0 km/h
311 14-11-2009 14:08:01 13.6 C 8.47 g/m*3 13.6 C 0 km/h
312 14-11-2009 14:20:01 13.6 C 8.24 g/m*3 13.6 C 0 km/h
313 14-11-2009 14:32:02 13.4 C 8.14 g/m*3 13.4 C 0 km/h
314 14-11-2009 14:44:02 13.2 C 8.04 g/m*3 13.2 C 0 km/h
315 14-11-2009 14:56:02 13.2 C 7.92 g/m*3 13.2 C 0 km/h
316 14-11-2009 15:08:02 13.1 C 7.76 g/m*3 13.1 C 0 km/h
317 14-11-2009 15:20:01 13.2 C 7.81 g/m*3 13.2 C 0 km/h
318 14-11-2009 15:32:02 13.2 C 7.81 g/m*3 13.2 C 0 km/h
319 14-11-2009 15:44:02 13.3 C 7.74 g/m*3 13.3 C 0 km/h
320 14-11-2009 15:56:02 13 C 7.6 g/m*3 13 C 0 km/h
321 14-11-2009 16:08:02 12.8 C 7.62 g/m*3 12.8 C 0 km/h
322 14-11-2009 16:20:02 12.8 C 7.5 g/m*3 12.8 C 0 km/h
323 14-11-2009 16:32:02 12.6 C 7.3 g/m*3 12.6 C 0 km/h
324 14-11-2009 16:44:02 12.5 C 7.26 g/m*3 12.5 C 0 km/h
325 14-11-2009 16:56:02 12.5 C 7.15 g/m*3 12.5 C 0 km/h
Sensor: Nr:Datum:Temp:Abs-Feuchte:Windchill:Wind:
Aussen-T/F 326 14-11-2009 17:08:02 12.3 C 7.17 g/m*3 12.3 C 0 km/h
327 14-11-2009 17:20:02 12.3 C 7.17 g/m*3 12.3 C 0 km/h
328 14-11-2009 17:32:02 11.8 C 7.26 g/m*3 11.8 C 0 km/h
329 14-11-2009 17:44:02 11.5 C 7.23 g/m*3 11.5 C 0 km/h
330 14-11-2009 17:56:02 11.4 C 7.39 g/m*3 11.4 C 0 km/h
331 14-11-2009 18:08:02 11.2 C 7.4 g/m*3 11.2 C 0 km/h
332 14-11-2009 18:20:03 11.2 C 7.4 g/m*3 11.2 C 0 km/h
333 14-11-2009 18:32:02 11.3 C 7.45 g/m*3 11.3 C 0 km/h
334 14-11-2009 18:44:02 11.1 C 7.35 g/m*3 11.1 C 0 km/h
335 14-11-2009 18:56:02 10.8 C 7.31 g/m*3 10.8 C 0 km/h
336 14-11-2009 19:08:02 10.4 C 7.23 g/m*3 10.4 C 0 km/h
337 14-11-2009 19:20:02 10.2 C 7.33 g/m*3 10.2 C 0 km/h
338 14-11-2009 19:32:02 10.3 C 7.47 g/m*3 10.3 C 0 km/h
339 14-11-2009 19:44:02 10.7 C 7.46 g/m*3 10.7 C 0 km/h
340 14-11-2009 19:56:02 10.7 C 7.56 g/m*3 10.7 C 0 km/h
341 14-11-2009 20:08:02 10.8 C 7.61 g/m*3 10.8 C 0 km/h
342 14-11-2009 20:20:02 10.8 C 7.51 g/m*3 10.8 C 0 km/h
343 14-11-2009 20:32:02 10.7 C 7.37 g/m*3 10.7 C 0 km/h
344 14-11-2009 20:44:02 11 C 7.41 g/m*3 11 C 0 km/h
345 14-11-2009 20:56:02 11.1 C 7.35 g/m*3 11.1 C 0 km/h
346 14-11-2009 21:08:02 11.5 C 7.33 g/m*3 11.5 C 0 km/h
347 14-11-2009 21:20:02 11.7 C 7.22 g/m*3 11.7 C 0 km/h
348 14-11-2009 21:32:02 11.6 C 7.07 g/m*3 11.6 C 0 km/h
349 14-11-2009 21:44:02 11.4 C 7.19 g/m*3 11.4 C 0 km/h
350 14-11-2009 21:56:02 11.9 C 7.1 g/m*3 11.9 C 0 km/h
Sensor: Nr:Datum:Temp:Abs-Feuchte:Windchill:Wind:
Aussen-T/F 351 14-11-2009 22:08:03 12.2 C 7.01 g/m*3 12.2 C 0 km/h
352 14-11-2009 22:20:02 12.6 C 6.97 g/m*3 12.6 C 0 km/h
353 14-11-2009 22:32:02 12.9 C 6.88 g/m*3 12.9 C 0 km/h
354 14-11-2009 22:44:02 13 C 6.69 g/m*3 13 C 0 km/h
355 14-11-2009 22:57:03 13.1 C 6.62 g/m*3 13.1 C 0 km/h
356 14-11-2009 23:09:03 13.2 C 6.54 g/m*3 13.2 C 0 km/h
357 14-11-2009 23:21:03 13.2 C 6.54 g/m*3 13.2 C 0 km/h
358 14-11-2009 23:33:03 13 C 6.58 g/m*3 13 C 0 km/h
359 14-11-2009 23:45:03 12.8 C 6.72 g/m*3 12.8 C 0 km/h
360 14-11-2009 23:57:03 12.7 C 6.68 g/m*3 12.7 C 0 km/h
361 15-11-2009 00:09:04 12.6 C 6.75 g/m*3 12.6 C 0 km/h
362 15-11-2009 00:21:04 12.6 C 6.75 g/m*3 12.6 C 0 km/h
363 15-11-2009 00:33:04 12.5 C 6.82 g/m*3 12.5 C 0 km/h
364 15-11-2009 00:45:04 12.3 C 6.95 g/m*3 12.3 C 0 km/h
365 15-11-2009 00:57:04 12.3 C 7.06 g/m*3 12.3 C 0 km/h
366 15-11-2009 01:09:04 12.2 C 7.01 g/m*3 12.2 C 0 km/h
367 15-11-2009 01:21:04 12.2 C 6.91 g/m*3 12.2 C 0 km/h
368 15-11-2009 01:33:04 12.1 C 6.86 g/m*3 12.1 C 0 km/h
369 15-11-2009 01:45:04 12.2 C 6.8 g/m*3 12.2 C 0 km/h
370 15-11-2009 01:57:04 12 C 6.82 g/m*3 12 C 0 km/h
371 15-11-2009 02:09:04 11.8 C 6.84 g/m*3 11.8 C 0 km/h
372 15-11-2009 02:21:04 11.7 C 6.9 g/m*3 11.7 C 0 km/h
373 15-11-2009 02:33:04 11.5 C 6.82 g/m*3 11.5 C 0 km/h
374 15-11-2009 02:45:04 11.5 C 6.82 g/m*3 11.5 C 0 km/h
375 15-11-2009 02:57:04 11.4 C 6.77 g/m*3 11.4 C 0 km/h
Sensor: Nr:Datum:Temp:Abs-Feuchte:Windchill:Wind:
Aussen-T/F 376 15-11-2009 03:09:04 11.5 C 6.82 g/m*3 11.5 C 0 km/h
377 15-11-2009 03:21:04 11.4 C 6.77 g/m*3 11.4 C 0 km/h
378 15-11-2009 03:33:04 11.2 C 6.79 g/m*3 11.2 C 0 km/h
379 15-11-2009 03:45:04 11.4 C 6.77 g/m*3 11.4 C 0 km/h
380 15-11-2009 03:57:04 11.4 C 6.77 g/m*3 11.4 C 0 km/h
381 15-11-2009 04:09:05 11.5 C 6.82 g/m*3 11.5 C 0 km/h
382 15-11-2009 04:21:05 11.3 C 6.83 g/m*3 11.3 C 0 km/h
383 15-11-2009 04:33:05 11.2 C 6.79 g/m*3 11.2 C 0 km/h
384 15-11-2009 04:45:05 11.2 C 6.79 g/m*3 11.2 C 0 km/h
385 15-11-2009 04:57:05 10.8 C 6.72 g/m*3 10.8 C 0 km/h
386 15-11-2009 05:09:05 10.3 C 6.7 g/m*3 10.3 C 0 km/h
387 15-11-2009 05:21:05 10.2 C 6.85 g/m*3 10.2 C 0 km/h
388 15-11-2009 05:33:05 10 C 6.77 g/m*3 10 C 0 km/h
389 15-11-2009 05:45:05 9.8 C 6.87 g/m*3 9.8 C 0 km/h
390 15-11-2009 05:57:05 9.7 C 6.82 g/m*3 9.7 C 0 km/h
391 15-11-2009 06:09:05 9.5 C 6.83 g/m*3 9.5 C 0 km/h
392 15-11-2009 06:21:05 9.3 C 6.83 g/m*3 9.3 C 0 km/h
393 15-11-2009 06:33:05 9.1 C 6.83 g/m*3 9.1 C 0 km/h
394 15-11-2009 06:45:05 9.5 C 7.01 g/m*3 9.5 C 0 km/h
395 15-11-2009 06:57:05 9.2 C 6.88 g/m*3 9.2 C 0 km/h
396 15-11-2009 07:09:05 9.2 C 6.97 g/m*3 9.2 C 0 km/h
397 15-11-2009 07:21:05 9.3 C 7.01 g/m*3 9.3 C 0 km/h
398 15-11-2009 07:33:03 9.6 C 7.15 g/m*3 9.6 C 0 km/h
399 15-11-2009 07:45:02 9.8 C 7.14 g/m*3 9.8 C 0 km/h
400 15-11-2009 07:57:02 10 C 6.95 g/m*3 10 C 0 km/h
Sensor: Nr:Datum:Temp:Abs-Feuchte:Windchill:Wind:
Aussen-T/F 401 15-11-2009 08:09:01 10.2 C 7.04 g/m*3 10.2 C 0 km/h
402 15-11-2009 08:21:01 10.4 C 7.04 g/m*3 10.4 C 0 km/h
403 15-11-2009 08:33:02 10.6 C 7.03 g/m*3 10.6 C 0 km/h
404 15-11-2009 08:45:02 10.8 C 7.02 g/m*3 10.8 C 0 km/h
405 15-11-2009 08:57:02 11 C 7.01 g/m*3 11 C 0 km/h
406 15-11-2009 09:09:02 11.1 C 7.15 g/m*3 11.1 C 0 km/h
407 15-11-2009 09:21:02 11.3 C 7.24 g/m*3 11.3 C 0 km/h
408 15-11-2009 09:33:02 11.3 C 7.24 g/m*3 11.3 C 0 km/h
409 15-11-2009 09:45:02 11.5 C 7.23 g/m*3 11.5 C 0 km/h
410 15-11-2009 09:57:02 11.7 C 7.32 g/m*3 11.7 C 0 km/h
411 15-11-2009 10:09:02 11.8 C 7.26 g/m*3 11.8 C 0 km/h
412 15-11-2009 10:21:02 11.9 C 7.31 g/m*3 11.9 C 0 km/h
413 15-11-2009 10:33:02 12 C 7.25 g/m*3 12 C 0 km/h
414 15-11-2009 10:45:02 11.9 C 7.2 g/m*3 11.9 C 0 km/h
415 15-11-2009 10:57:02 12 C 7.25 g/m*3 12 C 0 km/h
416 15-11-2009 11:09:02 12.1 C 7.29 g/m*3 12.1 C 0 km/h
417 15-11-2009 11:21:03 12.2 C 7.23 g/m*3 12.2 C 0 km/h
418 15-11-2009 11:33:02 12.3 C 7.28 g/m*3 12.3 C 0 km/h
419 15-11-2009 11:45:03 12.4 C 7.21 g/m*3 12.4 C 0 km/h
420 15-11-2009 11:57:03 12.8 C 7.5 g/m*3 12.8 C 0 km/h
421 15-11-2009 12:09:02 13.1 C 7.42 g/m*3 13.1 C 0 km/h
422 15-11-2009 12:21:02 13.2 C 7.35 g/m*3 13.2 C 0 km/h
423 15-11-2009 12:33:02 13 C 7.26 g/m*3 13 C 0 km/h
424 15-11-2009 12:45:02 12.9 C 7.33 g/m*3 12.9 C 0 km/h
425 15-11-2009 12:57:02 13.2 C 7.23 g/m*3 13.2 C 0 km/h
Sensor: Nr:Datum:Temp:Abs-Feuchte:Windchill:Wind:
Aussen-T/F 426 15-11-2009 13:09:02 13.1 C 7.19 g/m*3 13.1 C 0 km/h
427 15-11-2009 13:21:02 13.2 C 7.23 g/m*3 13.2 C 0 km/h
428 15-11-2009 13:33:02 13.5 C 7.37 g/m*3 13.5 C 0 km/h
429 15-11-2009 13:45:02 13.6 C 7.3 g/m*3 13.6 C 0 km/h
430 15-11-2009 13:57:02 13.4 C 7.09 g/m*3 13.4 C 0 km/h
431 15-11-2009 14:09:01 12.9 C 7.1 g/m*3 12.9 C 0 km/h
432 15-11-2009 14:21:02 13.2 C 7 g/m*3 13.2 C 0 km/h
433 15-11-2009 14:33:02 13.2 C 6.66 g/m*3 13.2 C 0 km/h
434 15-11-2009 14:45:02 13.6 C 6.59 g/m*3 13.6 C 0 km/h
435 15-11-2009 14:57:02 14 C 6.63 g/m*3 14 C 0 km/h
436 15-11-2009 15:09:02 14.3 C 6.39 g/m*3 14.3 C 0 km/h
437 15-11-2009 15:21:02 14.1 C 6.31 g/m*3 14.1 C 0 km/h
438 15-11-2009 15:33:03 13.8 C 6.2 g/m*3 13.8 C 0 km/h
439 15-11-2009 15:45:02 13.8 C 6.2 g/m*3 13.8 C 0 km/h
440 15-11-2009 15:57:02 13.5 C 6.2 g/m*3 13.5 C 0 km/h
441 15-11-2009 16:09:02 13.1 C 6.28 g/m*3 13.1 C 0 km/h
442 15-11-2009 16:21:01 13 C 6.35 g/m*3 13 C 0 km/h
443 15-11-2009 16:33:02 12.8 C 6.5 g/m*3 12.8 C 0 km/h
444 15-11-2009 16:45:02 12.7 C 6.35 g/m*3 12.7 C 0 km/h
445 15-11-2009 16:57:02 12.3 C 6.41 g/m*3 12.3 C 0 km/h
446 15-11-2009 17:09:02 12.3 C 6.41 g/m*3 12.3 C 0 km/h
447 15-11-2009 17:21:02 12.1 C 6.33 g/m*3 12.1 C 0 km/h
448 15-11-2009 17:33:02 11.8 C 6.53 g/m*3 11.8 C 0 km/h
449 15-11-2009 17:45:02 11.5 C 6.51 g/m*3 11.5 C 0 km/h
450 15-11-2009 17:57:02 11.5 C 6.51 g/m*3 11.5 C 0 km/h
Sensor: Nr:Datum:Temp:Abs-Feuchte:Windchill:Wind:
Aussen-T/F 451 15-11-2009 18:09:02 11.2 C 6.49 g/m*3 11.2 C 0 km/h
452 15-11-2009 18:21:02 10.9 C 6.56 g/m*3 10.9 C 0 km/h
453 15-11-2009 18:33:02 10.8 C 6.62 g/m*3 10.8 C 0 km/h
454 15-11-2009 18:45:02 11.1 C 6.55 g/m*3 11.1 C 0 km/h
455 15-11-2009 18:57:02 11.4 C 6.47 g/m*3 11.4 C 0 km/h
456 15-11-2009 19:09:02 11.2 C 6.49 g/m*3 11.2 C 0 km/h
457 15-11-2009 19:21:02 10.8 C 6.52 g/m*3 10.8 C 0 km/h
458 15-11-2009 19:33:02 10.6 C 6.64 g/m*3 10.6 C 0 km/h
459 15-11-2009 19:45:01 10.4 C 6.65 g/m*3 10.4 C 0 km/h
460 15-11-2009 19:57:01 10.1 C 6.62 g/m*3 10.1 C 0 km/h
461 15-11-2009 20:09:01 9.9 C 6.82 g/m*3 9.9 C 0 km/h
462 15-11-2009 20:21:02 9.8 C 6.77 g/m*3 9.8 C 0 km/h
463 15-11-2009 20:33:01 9.6 C 6.78 g/m*3 9.6 C 0 km/h
464 15-11-2009 20:45:03 9.6 C 6.78 g/m*3 9.6 C 0 km/h
465 15-11-2009 20:57:03 9.4 C 6.69 g/m*3 9.4 C 0 km/h
466 15-11-2009 21:09:03 9.3 C 6.74 g/m*3 9.3 C 0 km/h
467 15-11-2009 21:21:02 9.2 C 6.79 g/m*3 9.2 C 0 km/h
468 15-11-2009 21:33:02 9.1 C 6.74 g/m*3 9.1 C 0 km/h
469 15-11-2009 21:46:03 9.1 C 6.83 g/m*3 9.1 C 0 km/h
470 15-11-2009 21:58:03 8.7 C 6.83 g/m*3 8.7 C 0 km/h
471 15-11-2009 22:10:03 8.6 C 6.79 g/m*3 8.6 C 0 km/h
472 15-11-2009 22:22:03 8.5 C 6.83 g/m*3 8.5 C 0 km/h
473 15-11-2009 22:34:03 8.5 C 6.83 g/m*3 8.5 C 0 km/h
474 15-11-2009 22:46:03 8.5 C 6.92 g/m*3 8.5 C 0 km/h
475 15-11-2009 22:58:03 8.3 C 6.83 g/m*3 8.3 C 0 km/h
Sensor: Nr:Datum:Temp:Abs-Feuchte:Windchill:Wind:
Aussen-T/F 476 15-11-2009 23:10:03 8.1 C 6.74 g/m*3 8.1 C 0 km/h
477 15-11-2009 23:22:03 8 C 6.7 g/m*3 8 C 0 km/h
478 15-11-2009 23:34:04 7.9 C 6.82 g/m*3 7.9 C 0 km/h
479 15-11-2009 23:46:04 7.8 C 6.77 g/m*3 7.8 C 0 km/h
480 15-11-2009 23:58:04 7.8 C 6.77 g/m*3 7.8 C 0 km/h
481 16-11-2009 00:10:04 7.7 C 6.73 g/m*3 7.7 C 0 km/h
482 16-11-2009 00:22:04 7.7 C 6.73 g/m*3 7.7 C 0 km/h
483 16-11-2009 00:34:04 7.5 C 6.72 g/m*3 7.5 C 0 km/h
484 16-11-2009 00:46:04 7.5 C 6.72 g/m*3 7.5 C 0 km/h
485 16-11-2009 00:58:04 7.4 C 6.68 g/m*3 7.4 C 0 km/h
486 16-11-2009 01:10:04 7.3 C 6.64 g/m*3 7.3 C 0 km/h
487 16-11-2009 01:22:04 7.3 C 6.64 g/m*3 7.3 C 0 km/h
488 16-11-2009 01:34:04 7.3 C 6.72 g/m*3 7.3 C 0 km/h
489 16-11-2009 01:46:04 7.1 C 6.63 g/m*3 7.1 C 0 km/h
490 16-11-2009 01:58:04 7 C 6.59 g/m*3 7 C 0 km/h
491 16-11-2009 02:10:04 7.1 C 6.71 g/m*3 7.1 C 0 km/h
492 16-11-2009 02:22:04 7.1 C 6.71 g/m*3 7.1 C 0 km/h
493 16-11-2009 02:34:04 7.1 C 6.71 g/m*3 7.1 C 0 km/h
494 16-11-2009 02:46:04 7.1 C 6.71 g/m*3 7.1 C 0 km/h
495 16-11-2009 02:58:04 7.1 C 6.79 g/m*3 7.1 C 0 km/h
496 16-11-2009 03:10:04 7 C 6.74 g/m*3 7 C 0 km/h
497 16-11-2009 03:22:04 7 C 6.74 g/m*3 7 C 0 km/h
498 16-11-2009 03:34:05 7 C 6.82 g/m*3 7 C 0 km/h
499 16-11-2009 03:46:05 7.1 C 6.86 g/m*3 7.1 C 0 km/h
500 16-11-2009 03:58:05 7.1 C 6.86 g/m*3 7.1 C 0 km/h
Sensor: Nr:Datum:Temp:Abs-Feuchte:Windchill:Wind:
Aussen-T/F 501 16-11-2009 04:10:05 7.3 C 6.95 g/m*3 7.3 C 0 km/h
502 16-11-2009 04:22:05 7.4 C 7 g/m*3 7.4 C 0 km/h
503 16-11-2009 04:34:05 7.5 C 7.04 g/m*3 7.5 C 0 km/h
504 16-11-2009 04:46:05 7.5 C 7.04 g/m*3 7.5 C 0 km/h
505 16-11-2009 04:58:05 7.5 C 6.96 g/m*3 7.5 C 0 km/h
506 16-11-2009 05:10:05 7.5 C 6.96 g/m*3 7.5 C 0 km/h
507 16-11-2009 05:22:05 7.5 C 6.96 g/m*3 7.5 C 0 km/h
508 16-11-2009 05:34:05 7.6 C 7.01 g/m*3 7.6 C 0 km/h
509 16-11-2009 05:46:05 7.6 C 7.01 g/m*3 7.6 C 0 km/h
510 16-11-2009 05:58:05 7.6 C 7.01 g/m*3 7.6 C 0 km/h
511 16-11-2009 06:10:05 7.8 C 7.18 g/m*3 7.8 C 0 km/h
512 16-11-2009 06:22:05 7.9 C 7.23 g/m*3 7.9 C 0 km/h
513 16-11-2009 06:34:05 8 C 7.19 g/m*3 8 C 0 km/h
514 16-11-2009 06:46:05 7.9 C 7.23 g/m*3 7.9 C 0 km/h
515 16-11-2009 06:58:05 7.9 C 7.23 g/m*3 7.9 C 0 km/h
516 16-11-2009 07:10:04 7.9 C 7.23 g/m*3 7.9 C 0 km/h
517 16-11-2009 07:22:03 7.9 C 7.31 g/m*3 7.9 C 0 km/h
518 16-11-2009 07:34:04 8 C 7.28 g/m*3 8 C 0 km/h
519 16-11-2009 07:46:02 8.1 C 7.41 g/m*3 8.1 C 0 km/h
520 16-11-2009 07:58:02 8.1 C 7.41 g/m*3 8.1 C 0 km/h
521 16-11-2009 08:10:02 8.2 C 7.45 g/m*3 8.2 C 0 km/h
522 16-11-2009 08:22:02 8.2 C 7.45 g/m*3 8.2 C 0 km/h
523 16-11-2009 08:34:02 8.3 C 7.59 g/m*3 8.3 C 0 km/h
524 16-11-2009 08:46:02 8.4 C 7.72 g/m*3 8.4 C 0 km/h
525 16-11-2009 08:58:02 8.6 C 7.82 g/m*3 8.6 C 0 km/h
Sensor: Nr:Datum:Temp:Abs-Feuchte:Windchill:Wind:
Aussen-T/F 526 16-11-2009 09:10:03 8.9 C 7.97 g/m*3 8.9 C 0 km/h
527 16-11-2009 09:22:02 8.9 C 8.06 g/m*3 8.9 C 0 km/h
528 16-11-2009 09:34:02 8.9 C 8.06 g/m*3 8.9 C 0 km/h
529 16-11-2009 09:46:01 9.1 C 8.16 g/m*3 9.1 C 0 km/h
530 16-11-2009 09:58:01 9.2 C 8.3 g/m*3 9.2 C 0 km/h
531 16-11-2009 10:10:01 9.6 C 8.61 g/m*3 9.6 C 0 km/h
532 16-11-2009 10:22:02 9.9 C 8.78 g/m*3 9.9 C 0 km/h
533 16-11-2009 10:34:02 9.8 C 8.72 g/m*3 9.8 C 0 km/h
534 16-11-2009 10:46:02 10 C 8.74 g/m*3 10 C 0 km/h
535 16-11-2009 10:58:03 10 C 8.74 g/m*3 10 C 0 km/h
536 16-11-2009 11:10:02 10.1 C 8.79 g/m*3 10.1 C 0 km/h
537 16-11-2009 11:22:02 10.2 C 8.95 g/m*3 10.2 C 0 km/h
538 16-11-2009 11:34:02 10.2 C 8.95 g/m*3 10.2 C 0 km/h
539 16-11-2009 11:46:02 10.3 C 9 g/m*3 10.3 C 0 km/h
540 16-11-2009 11:58:02 10.5 C 9.12 g/m*3 10.5 C 0 km/h
541 16-11-2009 12:10:02 10.6 C 9.17 g/m*3 10.6 C 0 km/h
542 16-11-2009 12:22:01 10.9 C 9.35 g/m*3 10.9 C 0 km/h
543 16-11-2009 12:34:02 11.4 C 9.65 g/m*3 11.4 C 0 km/h
544 16-11-2009 12:46:02 11.6 C 9.87 g/m*3 11.6 C 0 km/h
545 16-11-2009 12:58:02 11.8 C 10 g/m*3 11.8 C 0 km/h
546 16-11-2009 13:10:02 12 C 10.02 g/m*3 12 C 0 km/h
547 16-11-2009 13:22:02 12.4 C 10.38 g/m*3 12.4 C 0 km/h
548 16-11-2009 13:34:02 12.5 C 10.33 g/m*3 12.5 C 0 km/h
549 16-11-2009 13:46:02 12.6 C 10.4 g/m*3 12.6 C 0 km/h
550 16-11-2009 13:58:02 12.7 C 10.46 g/m*3 12.7 C 0 km/h
Sensor: Nr:Datum:Temp:Abs-Feuchte:Windchill:Wind:
Aussen-T/F 551 16-11-2009 14:10:02 12.8 C 10.53 g/m*3 12.8 C 0 km/h
552 16-11-2009 14:22:02 13 C 10.55 g/m*3 13 C 0 km/h
553 16-11-2009 14:34:02 13.4 C 10.69 g/m*3 13.4 C 0 km/h
554 16-11-2009 14:46:02 13.7 C 10.66 g/m*3 13.7 C 0 km/h
555 16-11-2009 14:58:02 13.9 C 10.67 g/m*3 13.9 C 0 km/h
556 16-11-2009 15:10:02 14 C 10.49 g/m*3 14 C 0 km/h
557 16-11-2009 15:22:02 14 C 10.25 g/m*3 14 C 0 km/h
558 16-11-2009 15:34:02 14 C 10.37 g/m*3 14 C 0 km/h
559 16-11-2009 15:46:02 13.9 C 10.43 g/m*3 13.9 C 0 km/h
560 16-11-2009 15:58:02 14.1 C 10.44 g/m*3 14.1 C 0 km/h
561 16-11-2009 16:10:02 14.1 C 10.44 g/m*3 14.1 C 0 km/h
562 16-11-2009 16:22:03 14.2 C 10.26 g/m*3 14.2 C 0 km/h
563 16-11-2009 16:34:02 14.2 C 10.26 g/m*3 14.2 C 0 km/h
564 16-11-2009 16:46:02 14.4 C 10.14 g/m*3 14.4 C 0 km/h
565 16-11-2009 16:58:02 14.3 C 9.95 g/m*3 14.3 C 0 km/h
566 16-11-2009 17:10:02 14.4 C 10.01 g/m*3 14.4 C 0 km/h
567 16-11-2009 17:22:02 14.5 C 9.83 g/m*3 14.5 C 0 km/h
568 16-11-2009 17:34:02 14.4 C 9.77 g/m*3 14.4 C 0 km/h
569 16-11-2009 17:46:02 14.4 C 9.77 g/m*3 14.4 C 0 km/h
570 16-11-2009 17:58:02 14.3 C 9.71 g/m*3 14.3 C 0 km/h
571 16-11-2009 18:10:02 14.1 C 9.71 g/m*3 14.1 C 0 km/h
572 16-11-2009 18:22:02 14.2 C 9.65 g/m*3 14.2 C 0 km/h
573 16-11-2009 18:34:01 14.3 C 9.58 g/m*3 14.3 C 0 km/h
574 16-11-2009 18:46:02 14.5 C 9.58 g/m*3 14.5 C 0 km/h
575 16-11-2009 18:58:02 14.8 C 9.37 g/m*3 14.8 C 0 km/h
Sensor: Nr:Datum:Temp:Abs-Feuchte:Windchill:Wind:
Aussen-T/F 576 16-11-2009 19:10:01 14.8 C 9.25 g/m*3 14.8 C 0 km/h
577 16-11-2009 19:22:02 14.8 C 9.25 g/m*3 14.8 C 0 km/h
578 16-11-2009 19:34:01 14.8 C 9.25 g/m*3 14.8 C 0 km/h
579 16-11-2009 19:46:02 14.7 C 9.32 g/m*3 14.7 C 0 km/h
580 16-11-2009 19:58:02 14.6 C 9.26 g/m*3 14.6 C 0 km/h
581 16-11-2009 20:10:02 14.5 C 9.2 g/m*3 14.5 C 0 km/h
582 16-11-2009 20:22:02 14.5 C 9.33 g/m*3 14.5 C 0 km/h
583 16-11-2009 20:34:03 14.4 C 9.27 g/m*3 14.4 C 0 km/h
584 16-11-2009 20:46:02 14.5 C 9.2 g/m*3 14.5 C 0 km/h
585 16-11-2009 20:58:03 14.6 C 9.01 g/m*3 14.6 C 0 km/h
586 16-11-2009 21:10:01 14.5 C 9.08 g/m*3 14.5 C 0 km/h
587 16-11-2009 21:22:02 14.6 C 9.13 g/m*3 14.6 C 0 km/h
588 16-11-2009 21:34:02 14 C 9.41 g/m*3 14 C 0 km/h
589 16-11-2009 21:46:02 13.6 C 9.53 g/m*3 13.6 C 0 km/h
590 16-11-2009 21:58:02 13.7 C 9.71 g/m*3 13.7 C 0 km/h
591 16-11-2009 22:10:03 13.6 C 9.77 g/m*3 13.6 C 0 km/h
592 16-11-2009 22:22:02 13.7 C 9.71 g/m*3 13.7 C 0 km/h
593 16-11-2009 22:35:02 13.6 C 9.65 g/m*3 13.6 C 0 km/h
594 16-11-2009 22:47:02 13.8 C 9.65 g/m*3 13.8 C 0 km/h
595 16-11-2009 22:59:02 14 C 9.53 g/m*3 14 C 0 km/h
596 16-11-2009 23:11:02 14 C 9.41 g/m*3 14 C 0 km/h
597 16-11-2009 23:23:02 13.9 C 9.47 g/m*3 13.9 C 0 km/h
598 16-11-2009 23:35:02 13.8 C 9.53 g/m*3 13.8 C 0 km/h
599 16-11-2009 23:47:02 13.7 C 9.47 g/m*3 13.7 C 0 km/h
600 16-11-2009 23:59:02 13.8 C 9.53 g/m*3 13.8 C 0 km/h
Sensor: Nr:Datum:Temp:Abs-Feuchte:Windchill:Wind:
Aussen-T/F 601 17-11-2009 00:11:02 14 C 9.29 g/m*3 14 C 0 km/h
602 17-11-2009 00:23:02 14 C 9.17 g/m*3 14 C 0 km/h
603 17-11-2009 00:35:02 13.8 C 9.17 g/m*3 13.8 C 0 km/h
604 17-11-2009 00:47:02 13.8 C 9.17 g/m*3 13.8 C 0 km/h
605 17-11-2009 00:59:02 13.8 C 9.06 g/m*3 13.8 C 0 km/h
606 17-11-2009 01:11:02 13.9 C 8.87 g/m*3 13.9 C 0 km/h
607 17-11-2009 01:23:02 14 C 8.81 g/m*3 14 C 0 km/h
608 17-11-2009 01:35:02 13.8 C 8.82 g/m*3 13.8 C 0 km/h
609 17-11-2009 01:47:02 13.7 C 8.88 g/m*3 13.7 C 0 km/h
610 17-11-2009 01:59:02 13.6 C 8.83 g/m*3 13.6 C 0 km/h
611 17-11-2009 02:11:02 13.8 C 8.94 g/m*3 13.8 C 0 km/h
612 17-11-2009 02:23:02 13.7 C 8.76 g/m*3 13.7 C 0 km/h
613 17-11-2009 02:35:03 13.4 C 8.72 g/m*3 13.4 C 0 km/h
614 17-11-2009 02:47:03 13.2 C 8.73 g/m*3 13.2 C 0 km/h
615 17-11-2009 02:59:03 13 C 8.85 g/m*3 13 C 0 km/h
616 17-11-2009 03:11:03 12.8 C 9.07 g/m*3 12.8 C 0 km/h
617 17-11-2009 03:23:03 12.8 C 9.18 g/m*3 12.8 C 0 km/h
618 17-11-2009 03:35:03 12.8 C 9.18 g/m*3 12.8 C 0 km/h
619 17-11-2009 03:47:03 12.7 C 9.13 g/m*3 12.7 C 0 km/h
620 17-11-2009 03:59:03 12.8 C 9.3 g/m*3 12.8 C 0 km/h
621 17-11-2009 04:11:03 12.9 C 9.24 g/m*3 12.9 C 0 km/h
622 17-11-2009 04:23:03 12.8 C 9.18 g/m*3 12.8 C 0 km/h
623 17-11-2009 04:35:03 12.6 C 9.18 g/m*3 12.6 C 0 km/h
624 17-11-2009 04:47:03 12.5 C 9.13 g/m*3 12.5 C 0 km/h
625 17-11-2009 04:59:03 12.5 C 9.24 g/m*3 12.5 C 0 km/h
Sensor: Nr:Datum:Temp:Abs-Feuchte:Windchill:Wind:
Aussen-T/F 626 17-11-2009 05:11:03 12.4 C 9.29 g/m*3 12.4 C 0 km/h
627 17-11-2009 05:23:03 12.3 C 9.23 g/m*3 12.3 C 0 km/h
628 17-11-2009 05:35:03 12.2 C 9.28 g/m*3 12.2 C 0 km/h
629 17-11-2009 05:47:03 12.3 C 9.34 g/m*3 12.3 C 0 km/h
630 17-11-2009 05:59:03 12.4 C 9.29 g/m*3 12.4 C 0 km/h
631 17-11-2009 06:11:03 12.4 C 9.29 g/m*3 12.4 C 0 km/h
632 17-11-2009 06:23:03 12.2 C 9.17 g/m*3 12.2 C 0 km/h
633 17-11-2009 06:35:03 12.1 C 9.12 g/m*3 12.1 C 0 km/h
634 17-11-2009 06:47:04 12 C 9.17 g/m*3 12 C 0 km/h
635 17-11-2009 06:59:04 12 C 9.27 g/m*3 12 C 0 km/h
636 17-11-2009 07:11:02 11.9 C 9.43 g/m*3 11.9 C 0 km/h
637 17-11-2009 07:23:02 11.8 C 9.47 g/m*3 11.8 C 0 km/h
638 17-11-2009 07:35:02 11.6 C 9.35 g/m*3 11.6 C 0 km/h
639 17-11-2009 07:47:02 11.2 C 9.02 g/m*3 11.2 C 0 km/h
640 17-11-2009 07:59:03 11 C 8.81 g/m*3 11 C 0 km/h
641 17-11-2009 08:11:01 10.8 C 8.8 g/m*3 10.8 C 0 km/h
642 17-11-2009 08:23:01 10.8 C 8.8 g/m*3 10.8 C 0 km/h
643 17-11-2009 08:35:02 10.8 C 8.8 g/m*3 10.8 C 0 km/h
644 17-11-2009 08:47:02 10.8 C 8.9 g/m*3 10.8 C 0 km/h
645 17-11-2009 08:59:02 10.8 C 8.9 g/m*3 10.8 C 0 km/h
646 17-11-2009 09:11:02 10.9 C 8.95 g/m*3 10.9 C 0 km/h
647 17-11-2009 09:23:02 10 C 8.27 g/m*3 10 C 0 km/h
648 17-11-2009 09:35:02 9.8 C 8.26 g/m*3 9.8 C 0 km/h
649 17-11-2009 09:47:02 9.5 C 8.19 g/m*3 9.5 C 0 km/h
650 17-11-2009 09:59:02 9.4 C 8.23 g/m*3 9.4 C 0 km/h
Sensor: Nr:Datum:Temp:Abs-Feuchte:Windchill:Wind:
Aussen-T/F 651 17-11-2009 10:11:02 9.6 C 8.43 g/m*3 9.6 C 0 km/h
652 17-11-2009 10:23:03 9.7 C 8.48 g/m*3 9.7 C 0 km/h
653 17-11-2009 10:35:02 9.5 C 8.37 g/m*3 9.5 C 0 km/h
654 17-11-2009 10:47:02 9.7 C 8.57 g/m*3 9.7 C 0 km/h
655 17-11-2009 10:59:02 9.7 C 8.57 g/m*3 9.7 C 0 km/h
656 17-11-2009 11:11:02 9.8 C 8.72 g/m*3 9.8 C 0 km/h
657 17-11-2009 11:23:02 10.1 C 8.79 g/m*3 10.1 C 0 km/h
658 17-11-2009 11:35:02 10.1 C 8.79 g/m*3 10.1 C 0 km/h
659 17-11-2009 11:47:02 10.2 C 8.85 g/m*3 10.2 C 0 km/h
660 17-11-2009 11:59:02 10.1 C 8.79 g/m*3 10.1 C 0 km/h
661 17-11-2009 12:11:02 10.1 C 8.79 g/m*3 10.1 C 0 km/h
662 17-11-2009 12:23:02 10.2 C 8.85 g/m*3 10.2 C 0 km/h
663 17-11-2009 12:35:02 10.2 C 8.85 g/m*3 10.2 C 0 km/h
664 17-11-2009 12:47:02 10.3 C 8.91 g/m*3 10.3 C 0 km/h
665 17-11-2009 12:59:02 10.3 C 8.91 g/m*3 10.3 C 0 km/h
666 17-11-2009 13:11:01 10.2 C 8.76 g/m*3 10.2 C 0 km/h
667 17-11-2009 13:23:02 10.4 C 8.87 g/m*3 10.4 C 0 km/h
668 17-11-2009 13:35:01 10.1 C 8.7 g/m*3 10.1 C 0 km/h
669 17-11-2009 13:47:02 10.3 C 8.81 g/m*3 10.3 C 0 km/h
670 17-11-2009 13:59:02 10.1 C 8.61 g/m*3 10.1 C 0 km/h
671 17-11-2009 14:11:01 10.2 C 8.66 g/m*3 10.2 C 0 km/h
672 17-11-2009 14:23:02 10.3 C 8.62 g/m*3 10.3 C 0 km/h
673 17-11-2009 14:35:01 10.4 C 8.67 g/m*3 10.4 C 0 km/h
674 17-11-2009 14:47:03 10.6 C 8.88 g/m*3 10.6 C 0 km/h
675 17-11-2009 14:59:03 10.6 C 8.88 g/m*3 10.6 C 0 km/h
Sensor: Nr:Datum:Temp:Abs-Feuchte:Windchill:Wind:
Aussen-T/F 676 17-11-2009 15:11:02 10.4 C 8.67 g/m*3 10.4 C 0 km/h
677 17-11-2009 15:23:02 10.4 C 8.67 g/m*3 10.4 C 0 km/h
678 17-11-2009 15:35:02 10.2 C 8.47 g/m*3 10.2 C 0 km/h
679 17-11-2009 15:47:02 10.1 C 8.42 g/m*3 10.1 C 0 km/h
680 17-11-2009 15:59:02 10 C 8.27 g/m*3 10 C 0 km/h
681 17-11-2009 16:11:02 9.8 C 8.26 g/m*3 9.8 C 0 km/h
682 17-11-2009 16:23:02 9.7 C 8.11 g/m*3 9.7 C 0 km/h
683 17-11-2009 16:35:01 9.6 C 8.06 g/m*3 9.6 C 0 km/h
684 17-11-2009 16:47:02 9.6 C 8.06 g/m*3 9.6 C 0 km/h
685 17-11-2009 16:59:02 9.6 C 8.06 g/m*3 9.6 C 0 km/h
686 17-11-2009 17:11:01 9.5 C 8.1 g/m*3 9.5 C 0 km/h
687 17-11-2009 17:23:02 9.5 C 8.1 g/m*3 9.5 C 0 km/h
688 17-11-2009 17:35:01 9.5 C 8.1 g/m*3 9.5 C 0 km/h
689 17-11-2009 17:47:02 9.5 C 8.1 g/m*3 9.5 C 0 km/h
690 17-11-2009 17:59:02 9.5 C 8.1 g/m*3 9.5 C 0 km/h
691 17-11-2009 18:11:02 9.4 C 7.96 g/m*3 9.4 C 0 km/h
692 17-11-2009 18:23:02 9.5 C 8.01 g/m*3 9.5 C 0 km/h
693 17-11-2009 18:35:03 9.5 C 7.92 g/m*3 9.5 C 0 km/h
694 17-11-2009 18:47:02 9.6 C 7.97 g/m*3 9.6 C 0 km/h
695 17-11-2009 18:59:02 9.6 C 7.88 g/m*3 9.6 C 0 km/h
696 17-11-2009 19:11:01 9.8 C 7.7 g/m*3 9.8 C 0 km/h
697 17-11-2009 19:23:02 9.9 C 7.66 g/m*3 9.9 C 0 km/h
698 17-11-2009 19:35:02 9.8 C 7.7 g/m*3 9.8 C 0 km/h
699 17-11-2009 19:47:02 9.7 C 7.65 g/m*3 9.7 C 0 km/h
700 17-11-2009 19:59:02 9.7 C 7.65 g/m*3 9.7 C 0 km/h
Sensor: Nr:Datum:Temp:Abs-Feuchte:Windchill:Wind:
Aussen-T/F 701 17-11-2009 20:11:02 9.8 C 7.61 g/m*3 9.8 C 0 km/h
702 17-11-2009 20:23:02 9.8 C 7.61 g/m*3 9.8 C 0 km/h
703 17-11-2009 20:35:02 9.8 C 7.52 g/m*3 9.8 C 0 km/h
704 17-11-2009 20:47:01 9.8 C 7.52 g/m*3 9.8 C 0 km/h
705 17-11-2009 20:59:01 9.9 C 7.56 g/m*3 9.9 C 0 km/h
706 17-11-2009 21:11:02 9.7 C 7.47 g/m*3 9.7 C 0 km/h
707 17-11-2009 21:23:01 9.8 C 7.52 g/m*3 9.8 C 0 km/h
708 17-11-2009 21:35:01 9.6 C 7.42 g/m*3 9.6 C 0 km/h
709 17-11-2009 21:48:02 9.5 C 7.28 g/m*3 9.5 C 0 km/h
710 17-11-2009 22:00:02 9.5 C 7.37 g/m*3 9.5 C 0 km/h
711 17-11-2009 22:12:02 9.6 C 7.33 g/m*3 9.6 C 0 km/h
712 17-11-2009 22:24:02 9.5 C 7.19 g/m*3 9.5 C 0 km/h
713 17-11-2009 22:36:02 9.4 C 7.15 g/m*3 9.4 C 0 km/h
714 17-11-2009 22:48:02 9.2 C 7.05 g/m*3 9.2 C 0 km/h
715 17-11-2009 23:00:02 9.5 C 7.28 g/m*3 9.5 C 0 km/h
716 17-11-2009 23:12:02 9.7 C 7.19 g/m*3 9.7 C 0 km/h
717 17-11-2009 23:24:03 9.6 C 7.15 g/m*3 9.6 C 0 km/h
718 17-11-2009 23:36:03 9.6 C 7.15 g/m*3 9.6 C 0 km/h
719 17-11-2009 23:48:03 9.4 C 7.05 g/m*3 9.4 C 0 km/h
720 18-11-2009 00:00:03 9.4 C 7.05 g/m*3 9.4 C 0 km/h
721 18-11-2009 00:12:03 9.5 C 7.1 g/m*3 9.5 C 0 km/h
722 18-11-2009 00:24:03 9.6 C 7.05 g/m*3 9.6 C 0 km/h
723 18-11-2009 00:36:03 9.5 C 7.01 g/m*3 9.5 C 0 km/h
724 18-11-2009 00:48:03 9.5 C 7.1 g/m*3 9.5 C 0 km/h
725 18-11-2009 01:00:03 9.4 C 7.05 g/m*3 9.4 C 0 km/h
Sensor: Nr:Datum:Temp:Abs-Feuchte:Windchill:Wind:
Aussen-T/F 726 18-11-2009 01:12:03 9.3 C 7.01 g/m*3 9.3 C 0 km/h
727 18-11-2009 01:24:03 9.4 C 7.05 g/m*3 9.4 C 0 km/h
728 18-11-2009 01:36:03 9.3 C 6.92 g/m*3 9.3 C 0 km/h
729 18-11-2009 01:48:03 9.2 C 6.97 g/m*3 9.2 C 0 km/h
730 18-11-2009 02:00:03 9 C 6.88 g/m*3 9 C 0 km/h
731 18-11-2009 02:12:03 9.2 C 7.05 g/m*3 9.2 C 0 km/h
732 18-11-2009 02:24:03 9.3 C 6.92 g/m*3 9.3 C 0 km/h
733 18-11-2009 02:36:03 9.2 C 6.88 g/m*3 9.2 C 0 km/h
734 18-11-2009 02:48:03 9.1 C 6.83 g/m*3 9.1 C 0 km/h
735 18-11-2009 03:00:03 9.1 C 6.83 g/m*3 9.1 C 0 km/h
736 18-11-2009 03:12:04 8.9 C 6.92 g/m*3 8.9 C 0 km/h
737 18-11-2009 03:24:04 9 C 6.88 g/m*3 9 C 0 km/h
738 18-11-2009 03:36:04 8.8 C 6.88 g/m*3 8.8 C 0 km/h
739 18-11-2009 03:48:04 8.6 C 6.96 g/m*3 8.6 C 0 km/h
740 18-11-2009 04:00:04 8.7 C 7.01 g/m*3 8.7 C 0 km/h
741 18-11-2009 04:12:04 8.8 C 7.05 g/m*3 8.8 C 0 km/h
742 18-11-2009 04:24:04 8.7 C 7.01 g/m*3 8.7 C 0 km/h
743 18-11-2009 04:36:04 8.6 C 7.05 g/m*3 8.6 C 0 km/h
744 18-11-2009 04:48:04 8.5 C 7 g/m*3 8.5 C 0 km/h
745 18-11-2009 05:00:04 8.5 C 7.09 g/m*3 8.5 C 0 km/h
746 18-11-2009 05:12:04 8.8 C 7.14 g/m*3 8.8 C 0 km/h
747 18-11-2009 05:24:04 9 C 7.05 g/m*3 9 C 0 km/h
748 18-11-2009 05:36:04 8.9 C 6.92 g/m*3 8.9 C 0 km/h
749 18-11-2009 05:48:04 8.9 C 6.92 g/m*3 8.9 C 0 km/h
750 18-11-2009 06:00:04 9 C 6.79 g/m*3 9 C 0 km/h
Sensor: Nr:Datum:Temp:Abs-Feuchte:Windchill:Wind:
Aussen-T/F 751 18-11-2009 06:12:03 9 C 6.79 g/m*3 9 C 0 km/h
752 18-11-2009 06:24:03 8.8 C 6.79 g/m*3 8.8 C 0 km/h
753 18-11-2009 06:36:03 8.7 C 6.83 g/m*3 8.7 C 0 km/h
754 18-11-2009 06:48:02 8.7 C 6.75 g/m*3 8.7 C 0 km/h
755 18-11-2009 07:00:02 8.4 C 6.62 g/m*3 8.4 C 0 km/h
756 18-11-2009 07:12:03 8.3 C 6.66 g/m*3 8.3 C 0 km/h
757 18-11-2009 07:24:02 8 C 6.7 g/m*3 8 C 0 km/h
758 18-11-2009 07:36:02 8.4 C 6.96 g/m*3 8.4 C 0 km/h
759 18-11-2009 07:48:01 8.3 C 6.74 g/m*3 8.3 C 0 km/h
760 18-11-2009 08:00:01 8.5 C 6.66 g/m*3 8.5 C 0 km/h
761 18-11-2009 08:12:02 8.8 C 6.61 g/m*3 8.8 C 0 km/h
762 18-11-2009 08:24:01 9 C 6.52 g/m*3 9 C 0 km/h
763 18-11-2009 08:36:02 9.1 C 6.39 g/m*3 9.1 C 0 km/h
764 18-11-2009 08:48:02 9.4 C 6.51 g/m*3 9.4 C 0 km/h
765 18-11-2009 09:00:02 9.7 C 6.36 g/m*3 9.7 C 0 km/h
766 18-11-2009 09:12:02 9.7 C 6.18 g/m*3 9.7 C 0 km/h
767 18-11-2009 09:24:01 9.7 C 5.9 g/m*3 9.7 C 0 km/h
768 18-11-2009 09:36:02 9.6 C 5.86 g/m*3 9.6 C 0 km/h
769 18-11-2009 09:48:01 9.6 C 5.86 g/m*3 9.6 C 0 km/h
770 18-11-2009 10:00:01 9.9 C 6.07 g/m*3 9.9 C 0 km/h
771 18-11-2009 10:12:02 10.4 C 5.98 g/m*3 10.4 C 0 km/h
772 18-11-2009 10:24:02 10.6 C 5.95 g/m*3 10.6 C 0 km/h
773 18-11-2009 10:36:02 10.7 C 5.8 g/m*3 10.7 C 0 km/h
774 18-11-2009 10:48:02 10.9 C 5.67 g/m*3 10.9 C 0 km/h
775 18-11-2009 11:00:02 11 C 5.71 g/m*3 11 C 0 km/h
Sensor: Nr:Datum:Temp:Abs-Feuchte:Windchill:Wind:
Aussen-T/F 776 18-11-2009 11:12:02 11.1 C 5.74 g/m*3 11.1 C 0 km/h
777 18-11-2009 11:24:02 11.2 C 5.68 g/m*3 11.2 C 0 km/h
778 18-11-2009 11:36:02 11.2 C 5.57 g/m*3 11.2 C 0 km/h
779 18-11-2009 11:48:01 11.4 C 5.44 g/m*3 11.4 C 0 km/h
780 18-11-2009 12:00:01 11.7 C 5.44 g/m*3 11.7 C 0 km/h
781 18-11-2009 12:12:02 11.9 C 5.51 g/m*3 11.9 C 0 km/h
782 18-11-2009 12:24:01 11.8 C 5.16 g/m*3 11.8 C 0 km/h
783 18-11-2009 12:36:01 11.8 C 5.37 g/m*3 11.8 C 0 km/h
784 18-11-2009 12:48:01 11.7 C 5.23 g/m*3 11.7 C 0 km/h
785 18-11-2009 13:00:01 11.9 C 5.19 g/m*3 11.9 C 0 km/h
786 18-11-2009 13:12:02 12.3 C 5.21 g/m*3 12.3 C 0 km/h
787 18-11-2009 13:24:01 12.2 C 5.29 g/m*3 12.2 C 0 km/h
788 18-11-2009 13:36:02 12 C 5.12 g/m*3 12 C 0 km/h
789 18-11-2009 13:48:01 11.9 C 5.3 g/m*3 11.9 C 0 km/h
790 18-11-2009 14:00:01 11.9 C 5.4 g/m*3 11.9 C 0 km/h
791 18-11-2009 14:12:02 11.9 C 5.3 g/m*3 11.9 C 0 km/h
792 18-11-2009 14:24:01 11.9 C 5.3 g/m*3 11.9 C 0 km/h
793 18-11-2009 14:36:02 11.8 C 5.37 g/m*3 11.8 C 0 km/h
794 18-11-2009 14:48:01 11.8 C 5.26 g/m*3 11.8 C 0 km/h
795 18-11-2009 15:00:01 11.8 C 5.37 g/m*3 11.8 C 0 km/h
796 18-11-2009 15:12:02 11.7 C 5.33 g/m*3 11.7 C 0 km/h
797 18-11-2009 15:24:01 11.6 C 5.3 g/m*3 11.6 C 0 km/h
798 18-11-2009 15:36:02 11.5 C 5.27 g/m*3 11.5 C 0 km/h
799 18-11-2009 15:48:01 11.4 C 5.23 g/m*3 11.4 C 0 km/h
800 18-11-2009 16:00:01 11.3 C 5.41 g/m*3 11.3 C 0 km/h
Sensor: Nr:Datum:Temp:Abs-Feuchte:Windchill:Wind:
Aussen-T/F 801 18-11-2009 16:12:02 10.9 C 5.47 g/m*3 10.9 C 0 km/h
802 18-11-2009 16:24:02 10.9 C 5.47 g/m*3 10.9 C 0 km/h
803 18-11-2009 16:36:02 11.1 C 5.44 g/m*3 11.1 C 0 km/h
804 18-11-2009 16:48:01 11.1 C 5.44 g/m*3 11.1 C 0 km/h
805 18-11-2009 17:00:01 11.1 C 5.44 g/m*3 11.1 C 0 km/h
806 18-11-2009 17:12:02 11.1 C 5.44 g/m*3 11.1 C 0 km/h
807 18-11-2009 17:24:02 11.2 C 5.47 g/m*3 11.2 C 0 km/h
808 18-11-2009 17:36:01 11.2 C 5.57 g/m*3 11.2 C 0 km/h
809 18-11-2009 17:48:01 11.4 C 5.65 g/m*3 11.4 C 0 km/h
810 18-11-2009 18:00:01 11 C 5.61 g/m*3 11 C 0 km/h
811 18-11-2009 18:12:02 11 C 5.71 g/m*3 11 C 0 km/h
812 18-11-2009 18:24:02 10.9 C 5.87 g/m*3 10.9 C 0 km/h
813 18-11-2009 18:36:01 11 C 5.81 g/m*3 11 C 0 km/h
814 18-11-2009 18:48:02 11.1 C 5.84 g/m*3 11.1 C 0 km/h
815 18-11-2009 19:00:02 11.4 C 5.95 g/m*3 11.4 C 0 km/h
816 18-11-2009 19:12:01 11.4 C 5.95 g/m*3 11.4 C 0 km/h
817 18-11-2009 19:24:02 11.3 C 5.92 g/m*3 11.3 C 0 km/h
818 18-11-2009 19:36:01 11.3 C 5.92 g/m*3 11.3 C 0 km/h
819 18-11-2009 19:48:03 11.3 C 5.92 g/m*3 11.3 C 0 km/h
820 18-11-2009 20:00:03 11.3 C 5.92 g/m*3 11.3 C 0 km/h
821 18-11-2009 20:12:02 11.3 C 6.02 g/m*3 11.3 C 0 km/h
822 18-11-2009 20:24:02 11.3 C 6.02 g/m*3 11.3 C 0 km/h
823 18-11-2009 20:36:02 11.1 C 6.04 g/m*3 11.1 C 0 km/h
824 18-11-2009 20:48:02 10.9 C 6.07 g/m*3 10.9 C 0 km/h
825 18-11-2009 21:00:02 11 C 6.11 g/m*3 11 C 0 km/h
Sensor: Nr:Datum:Temp:Abs-Feuchte:Windchill:Wind:
Aussen-T/F 826 18-11-2009 21:12:02 11 C 6.11 g/m*3 11 C 0 km/h
827 18-11-2009 21:24:02 10.8 C 6.13 g/m*3 10.8 C 0 km/h
828 18-11-2009 21:36:02 10.6 C 6.15 g/m*3 10.6 C 0 km/h
829 18-11-2009 21:48:02 10.3 C 6.13 g/m*3 10.3 C 0 km/h
830 18-11-2009 22:00:02 10.3 C 6.22 g/m*3 10.3 C 0 km/h
831 18-11-2009 22:13:02 10.1 C 6.24 g/m*3 10.1 C 0 km/h
832 18-11-2009 22:25:02 10.2 C 6.28 g/m*3 10.2 C 0 km/h
833 18-11-2009 22:37:02 10.1 C 6.24 g/m*3 10.1 C 0 km/h
834 18-11-2009 22:49:02 10 C 6.3 g/m*3 10 C 0 km/h
835 18-11-2009 23:01:02 9.9 C 6.44 g/m*3 9.9 C 0 km/h
836 18-11-2009 23:13:02 10.1 C 6.43 g/m*3 10.1 C 0 km/h
837 18-11-2009 23:25:02 10.2 C 6.47 g/m*3 10.2 C 0 km/h
838 18-11-2009 23:37:02 10.3 C 6.42 g/m*3 10.3 C 0 km/h
839 18-11-2009 23:49:02 10.3 C 6.42 g/m*3 10.3 C 0 km/h

Legende:
   Min
   Max


Maximal/Minimal-Werte vom 12.11.2009 - 18.11.2009

Sensor Min Max Avg
Temp
(Aussen-T/F)
0.2 °C
12-11-2009  05:06:04
17.5 °C
13-11-2009  14:43:02
10.13 °C
Abs-Feuchte
(Aussen-T/F)
4.57 g/m*3
12-11-2009  05:06:04
10.69 g/m*3
16-11-2009  14:34:02
7.44 g/m*3
Windchill
(Aussen-T/F)
0.2 C
12-11-2009  05:06:04
17.5 C
13-11-2009  14:43:02
10.12 C

Die Daten stammen von einer Davis Vantage Pro 2 Wetter-Station und werden unter Linux mit der Software wview2wettercgi und aufbereitet. Alle Angaben erfolgen ohne Gewähr für ihre Vollständigkeit oder Richtigkeit.
Kontakt: Rainer Krienke krienke@uni-koblenz.de . Meine Webseiten an der Uni Koblenz oder privat.
Version: $Revision: 0.78 $